Miscellaneous Local Product
Issued by NWS North Platte, NE

Home | Current Version | Previous Version | Text Only | Print | Product List | Glossary On
Versions: 1 2 3 4 5 6 7 8 9 10 11 12 13 14 15 16 17 18 19 20 21 22 23 24 25 26 27 28 29 30 31 32 33 34 35 36 37 38 39 40 41 42 43 44 45 46 47 48 49 50
000
AXUS43 KLBF 120610
MISLBF


WESTERN AND NORTH CENTRAL NEBRASKA HOURLY WEATHER ROUNDUP
NATIONAL WEATHER SERVICE NORTH PLATTE NE
100 AM CDT WED MAY 12 2021

NOTE: "FAIR" INDICATES FEW OR NO CLOUDS BELOW 12,000 FEET WITH NO
SIGNIFICANT WEATHER AND/OR OBSTRUCTIONS TO VISIBILITY.

NOTE: STATIONS NOT REPORTING SKY/WEATHER AND PRESSURE ARE
PROVIDED BY RAWS AND APRS NETWORKS AND ARE NOT UNDER NATIONAL
WEATHER SERVICE QUALITY CONTROL.

...OBSERVATIONS IN AND NEAR THE EASTERN PANHANDLE OF NEBRASKA...

CITY           SKY/WX    TMP DP  RH WIND       PRES   REMARKS
PINE RIDGE     CLEAR     41  32  70 CALM      30.30S
GORDON         PTCLDY    37  32  82 CALM      30.30S
CHADRON        CLEAR     36  32  85 CALM      30.30S
ALLIANCE       FOG       31  31 100 S5        30.30F VSB 1/4
SIDNEY         CLEAR     33  32  96 S8        30.31F FOG
CRESCENT LAKE    N/A     39  37  94 SW5         N/A
$$

...OBSERVATIONS IN NORTHERN NEBRASKA AND FAR SOUTHERN SOUTH DAKOTA...

CITY           SKY/WX    TMP DP  RH WIND       PRES   REMARKS
WINNER         CLEAR     47  24  40 S12       30.32S
VALENTINE      PTCLDY    47  28  47 SE10      30.32S
AINSWORTH      PTCLDY    37  28  71 S3        30.35R
O`NEILL        PTCLDY    44  23  44 SE5       30.36S
BROKEN BOW     PTCLDY    38  30  73 CALM      30.35R
ORD            MOCLDY    35  28  75 CALM      30.36R
ALBION         PTCLDY    34  30  85 NW3       30.38R
EWING            N/A     39  28  65 CALM        N/A
CHAMBERS         N/A     41  28  58 CALM        N/A
BUTTE            N/A     44  26  48 E8          N/A
HALSEY           N/A     45  30  55 S6          N/A
$$

...OBSERVATIONS IN SOUTHWEST NEBRASKA AND FAR NORTHEAST COLORADO...

CITY           SKY/WX    TMP DP  RH WIND       PRES   REMARKS
WRAY           CLOUDY    39  39 100 W5        30.35S
HOLYOKE        CLEAR     37  36  93 SW3       30.34F
IMPERIAL       CLOUDY    43  39  86 W7        30.34S
OGALLALA       CLEAR     34  33  94 CALM      30.34S
NORTH PLATTE   PTCLDY    38  31  76 E6        30.35R
MCCOOK         MOCLDY    43  39  86 SW5       30.36R
LEXINGTON      PTCLDY    44  33  65 S7        30.36S
CALLAWAY         N/A     43  34  70 S3          N/A
STAPLETON        N/A     42  32  68 CALM        N/A
$$

...OBSERVATIONS IN CENTRAL LINCOLN COUNTY AREA...

CITY           SKY/WX    TMP DP  RH WIND       PRES   REMARKS
N.P. AIRPORT   PTCLDY    38  31  76 E6        30.35R
N.P. HILLCREST   N/A     42  34  72 CALM        N/A
N.P. DOWNTOWN    N/A     42  33  71 CALM        N/A
$$

...OBSERVATIONS ACROSS THE ROCKIES AND WESTERN HIGH PLAINS...

CITY           SKY/WX    TMP DP  RH WIND       PRES   REMARKS
SCOTTSBLUFF    MOCLDY    41  36  82 SE3       30.30F
KIMBALL        CLOUDY    40  39  96 S6        30.31F
CHEYENNE       CLOUDY    35  34  96 S14       30.27F
DENVER         MOCLDY    40  38  93 SE6       30.29F
STEAMBOAT      MOCLDY    32  32  98 CALM      30.25F
COPPER MTN     PTCLDY    23  12  63 SW8       30.35S WCI  14
LEADVILLE      PTCLDY    24  17  74 CALM      30.30S
ASPEN          PTCLDY    35  25  66 S7        30.26S
GUNNISON       CLEAR     37  17  44 CALM      30.26R
TELLURIDE      PTCLDY    36  14  41 SE6       30.29S
LARAMIE        PTCLDY    31  28  89 S13       30.23F
CASPER         PTCLDY    31  27  85 N3        30.20F
SHERIDAN       MOCLDY    42  35  76 N7        30.16S
JACKSON        PTCLDY    32  29  88 W3        30.25R
YELLOWSTONE      N/A     29  29 100 CALM      30.27S
$$

...OBSERVATIONS ACROSS THE NORTHERN PLAINS...

CITY           SKY/WX    TMP DP  RH WIND       PRES   REMARKS
RAPID CITY     PTCLDY    39  27  62 S3        30.25F
PIERRE         CLEAR     42  29  59 SE6       30.30S
SIOUX FALLS    CLEAR     49  24  37 S9        30.38R
ABERDEEN       CLEAR     39  26  59 SE5       30.33S
WILLISTON      FAIR      50  27  40 CALM      30.21S
DICKINSON      CLOUDY    48  30  49 S8        30.22R
BISMARCK       CLEAR     45  30  55 CALM      30.27S
FARGO          CLEAR     47  21  35 S8        30.31S
GRAND FORKS    CLEAR     40  20  44 S8        30.28S
$$

...OBSERVATIONS ACROSS THE CENTRAL AND SOUTHERN PLAINS...

CITY           SKY/WX    TMP DP  RH WIND       PRES   REMARKS
GRAND ISLAND   PTCLDY    45  34  65 E5        30.37S
LINCOLN        PTCLDY    43  34  70 N6        30.38S
OMAHA          MOCLDY    46  41  82 CALM      30.38S
DES MOINES     PTCLDY    46  31  55 CALM      30.41R
KANSAS CITY    CLOUDY    52  41  66 NE6       30.34S
WICHITA        CLEAR     49  43  80 N6        30.31R
DODGE CITY     PTCLDY    42  40  92 N7        30.34R
OKLAHOMA CITY  CLOUDY    53  44  71 N9        30.23R
DALLAS         DRIZZLE   59  55  87 N7        30.12R
AMARILLO       CLOUDY    46  39  76 N10       30.30S
$$



USA.gov is the U.S. government's official web portal to all federal, state and local government web resources and services.